Terminal Aerodrome Forecast
Issued by NWS

Home | Current Version | Previous Version | Text Only | Print | Product List | Glossary On
Versions: 1 2 3 4 5 6 7 8 9 10 11 12 13 14 15 16 17 18 19
000
FTUS44 KCRP 232300
TAFALI
TAF
KALI 232336Z 2400/2424 13012G18KT P6SM SCT050
     FM240100 14005KT P6SM FEW035
     FM240900 VRB02KT 5SM BR FEW001
      TEMPO 2410/2414 1SM BR BKN005
     FM241400 18006KT P6SM SCT015
     FM241800 14010KT P6SM SCT035=

USA.gov is the U.S. government's official web portal to all federal, state and local government web resources and services.